Location: Hormuz
(27.0871°N, 56.4580°E)
Time: 11:11:00
(UTC+04:30)

ISS - Pass Details

Date: 28 June 2021
Orbit: 419 x 421 km, 51.6° (Epoch: 03 August)

Event Time Altitude Azimuth Distance (km) Brightness Sun altitude
Exits shadow 02:52:12 11° 58° (ENE) 1,461 -0.3 -31.3°
Drops below altitude 10° 02:52:17 10° 57° (ENE) 1,495 -0.2 -31.3°
Sets 02:54:26 0° 50° (NE) 2,360 1.1 -31.0°
